Location: Falniów
(50.3639°N, 19.9642°E)
Time: 15:02:47
(UTC+00:00)

COSMOS 2406 - Pass Details

Date: 18 January 2026
Orbit: 843 x 861 km, 71.0° (Epoch: 10 February)

Event Time Altitude Azimuth Distance (km) Brightness Sun altitude
Exits shadow 04:15:50 17° 338° (NNW) 2,032 4.9 -21.1°
Maximum altitude 04:20:16 65° 57° (ENE) 945 3.6 -20.4°
Drops below altitude 10° 04:25:58 10° 139° (SE) 2,492 6.3 -19.5°
Sets 04:28:27 0° 142° (SE) 3,426 7.1 -19.1°
